This is the latest recevied weather packets stored in our database for station/object N1UNH. If no packets are shown the sender has not sent any weather packets the latest 10 day(s).
| Time | Temp. | Humidity | Pressure | Rain* | Wind** | Luminosity | Snow |
|---|---|---|---|---|---|---|---|
| 1777873858 | 2.78° C | 81% | 1015 hPa | 0 mm | - | 0 W/m² | - |
| 1777873555 | 2.78° C | 78% | 1014.9 hPa | 0 mm | - | 0 W/m² | - |
| 1777873253 | 2.78° C | 76% | 1014.9 hPa | 0 mm | - | 0 W/m² | - |
| 1777872949 | 2.78° C | 76% | 1014.5 hPa | 0 mm | - | 0 W/m² | - |
| 1777872647 | 2.78° C | 76% | 1014.8 hPa | 0 mm | - | 0 W/m² | - |
| 1777872344 | 2.78° C | 78% | 1014.8 hPa | 0 mm | - | 0 W/m² | - |
| 1777872042 | 2.22° C | 80% | 1014.6 hPa | 0 mm | - | 0 W/m² | - |
| 1777871738 | 2.22° C | 80% | 1014.9 hPa | 0 mm | - | 0 W/m² | - |
| 1777871435 | 2.22° C | 79% | 1014.8 hPa | 0 mm | - | 0 W/m² | - |
| 1777871132 | 1.67° C | 83% | 1014.9 hPa | 0 mm | - | 0 W/m² | - |
| 1777870829 | 1.67° C | 81% | 1014.8 hPa | 0 mm | - | 0 W/m² | - |
| 1777870525 | 1.67° C | 80% | 1015 hPa | 0 mm | - | 0 W/m² | - |
| 1777870221 | 1.67° C | 79% | 1014.8 hPa | 0 mm | - | 0 W/m² | - |
| 1777869918 | 1.67° C | 79% | 1015.1 hPa | 0 mm | - | 0 W/m² | - |
| 1777869615 | 1.67° C | 82% | 1014.8 hPa | 0 mm | - | 0 W/m² | - |
| 1777869312 | 1.67° C | 80% | 1014.7 hPa | 0 mm | - | 0 W/m² | - |
| 1777869010 | 1.67° C | 82% | 1014.8 hPa | 0 mm | - | 0 W/m² | - |
| 1777868706 | 1.67° C | 78% | 1014.7 hPa | 0 mm | - | 0 W/m² | - |
| 1777868403 | 1.67° C | 80% | 1014.7 hPa | 0 mm | - | 0 W/m² | - |
| 1777868099 | 1.67° C | 82% | 1014.9 hPa | 0 mm | - | 0 W/m² | - |
| 1777867795 | 1.67° C | 83% | 1014.7 hPa | 0 mm | - | 0 W/m² | - |
| 1777867493 | 1.67° C | 82% | 1014.6 hPa | 0 mm | - | 0 W/m² | - |
| 1777867189 | 1.67° C | 82% | 1014.5 hPa | 0 mm | - | 0 W/m² | - |
| 1777866887 | 1.67° C | 80% | 1014.7 hPa | 0 mm | - | 0 W/m² | - |
| 1777866583 | 1.67° C | 81% | 1014.8 hPa | 0 mm | - | 0 W/m² | - |
* Rain latest hour (hover to see other rain measurements)
** Current wind speed in m/s (hover to see current wind gust speed)